Time,TemperatureF,DewpointF,PressureIn,WindDirection,WindDirectionDegrees,WindSpeedMPH,WindSpeedGustMPH,Humidity,HourlyPrecipIn,Conditions,Clouds,dailyrainin,SoftwareType,DateUTC
2013-05-12 00:01:00,38.7,11.4,0.00,NW,321,6.7,9.2,32,0.00,,,0.00,VWS V13.01,2013-05-12 05:01:00,
2013-05-12 00:06:00,38.7,11.4,0.00,NW,326,5.4,10.5,32,0.00,,,0.00,VWS V13.01,2013-05-12 05:06:00,
2013-05-12 00:11:00,38.5,11.2,0.00,NNW,330,3.1,3.1,32,0.00,,,0.00,VWS V13.01,2013-05-12 05:11:00,
2013-05-12 00:16:00,38.3,11.0,0.00,NW,325,4.9,5.4,32,0.00,,,0.00,VWS V13.01,2013-05-12 05:16:00,
2013-05-12 00:21:00,38.1,10.9,0.00,WNW,293,2.7,12.8,32,0.00,,,0.00,VWS V13.01,2013-05-12 05:21:00,
2013-05-12 00:26:00,38.1,10.2,0.00,NW,326,3.6,7.2,31,0.00,,,0.00,VWS V13.01,2013-05-12 05:26:00,
2013-05-12 00:31:00,37.9,10.0,0.00,NNW,327,8.3,8.3,31,0.00,,,0.00,VWS V13.01,2013-05-12 05:31:00,
2013-05-12 00:36:00,37.9,10.0,0.00,North,353,8.1,8.1,31,0.00,,,0.00,VWS V13.01,2013-05-12 05:36:00,
2013-05-12 00:42:00,37.9,10.0,0.00,North,0,4.5,8.1,31,0.00,,,0.00,VWS V13.01,2013-05-12 05:42:00,
2013-05-12 00:47:00,37.8,9.9,0.00,NW,325,3.6,5.4,31,0.00,,,0.00,VWS V13.01,2013-05-12 05:47:00,
2013-05-12 00:52:00,37.8,9.9,0.00,NNW,334,8.7,8.7,31,0.00,,,0.00,VWS V13.01,2013-05-12 05:52:00,
2013-05-12 00:57:00,37.6,9.7,0.00,NW,314,8.1,8.3,31,0.00,,,0.00,VWS V13.01,2013-05-12 05:57:00,
2013-05-12 01:02:00,37.6,9.7,0.00,NW,313,5.8,10.1,31,0.00,,,0.00,VWS V13.01,2013-05-12 06:02:00,
2013-05-12 01:07:00,37.6,9.7,0.00,WNW,291,5.8,5.8,31,0.00,,,0.00,VWS V13.01,2013-05-12 06:07:00,
2013-05-12 01:12:00,37.6,9.7,0.00,WNW,291,4.0,5.8,31,0.00,,,0.00,VWS V13.01,2013-05-12 06:12:00,
2013-05-12 01:17:00,37.4,9.5,0.00,NW,325,4.9,6.3,31,0.00,,,0.00,VWS V13.01,2013-05-12 06:17:00,
2013-05-12 01:22:00,37.4,9.5,0.00,North,0,3.1,4.0,31,0.00,,,0.00,VWS V13.01,2013-05-12 06:22:00,
2013-05-12 01:27:00,37.2,9.4,0.00,NW,311,3.6,8.7,31,0.00,,,0.00,VWS V13.01,2013-05-12 06:27:00,
2013-05-12 01:32:00,37.2,9.4,0.00,WNW,299,5.8,8.3,31,0.00,,,0.00,VWS V13.01,2013-05-12 06:32:00,
2013-05-12 01:37:00,37.0,9.2,0.00,North,353,4.0,4.0,31,0.00,,,0.00,VWS V13.01,2013-05-12 06:37:00,
2013-05-12 01:42:00,37.0,9.2,0.00,NW,325,2.2,4.0,31,0.00,,,0.00,VWS V13.01,2013-05-12 06:42:00,
2013-05-12 01:47:00,36.7,8.9,0.00,NW,312,3.1,4.0,31,0.00,,,0.00,VWS V13.01,2013-05-12 06:47:00,
2013-05-12 01:52:00,36.7,8.9,0.00,NW,320,4.5,4.5,31,0.00,,,0.00,VWS V13.01,2013-05-12 06:52:00,
2013-05-12 01:57:00,36.7,8.9,0.00,NNW,337,2.7,3.1,31,0.00,,,0.00,VWS V13.01,2013-05-12 06:57:00,
2013-05-12 02:02:00,36.5,8.8,0.00,NW,316,5.4,5.4,31,0.00,,,0.00,VWS V13.01,2013-05-12 07:02:00,
2013-05-12 02:07:00,36.5,8.8,0.00,NW,306,0.0,2.7,31,0.00,,,0.00,VWS V13.01,2013-05-12 07:07:00,
2013-05-12 02:12:00,36.3,8.6,0.00,NW,314,0.0,4.0,31,0.00,,,0.00,VWS V13.01,2013-05-12 07:12:00,
2013-05-12 02:17:00,36.1,8.4,0.00,NNW,339,0.0,0.0,31,0.00,,,0.00,VWS V13.01,2013-05-12 07:17:00,
2013-05-12 02:22:00,36.1,8.4,0.00,NW,318,0.0,4.9,31,0.00,,,0.00,VWS V13.01,2013-05-12 07:22:00,
2013-05-12 02:27:00,36.0,8.3,0.00,NNW,338,0.0,4.0,31,0.00,,,0.00,VWS V13.01,2013-05-12 07:27:00,
2013-05-12 02:32:00,35.8,8.1,0.00,NW,323,0.0,5.8,31,0.00,,,0.00,VWS V13.01,2013-05-12 07:32:00,
2013-05-12 02:37:00,35.8,8.1,0.00,NNW,348,4.5,4.5,31,0.00,,,0.00,VWS V13.01,2013-05-12 07:37:00,
2013-05-12 02:42:00,35.6,8.0,0.00,NW,309,3.6,5.8,31,0.00,,,0.00,VWS V13.01,2013-05-12 07:42:00,
2013-05-12 02:47:00,35.6,8.0,0.00,WNW,288,2.7,3.6,31,0.00,,,0.00,VWS V13.01,2013-05-12 07:47:00,
2013-05-12 02:52:00,35.4,8.5,0.00,NNW,331,0.0,2.7,32,0.00,,,0.00,VWS V13.01,2013-05-12 07:52:00,
2013-05-12 02:57:00,35.2,8.4,0.00,NW,321,3.6,3.6,32,0.00,,,0.00,VWS V13.01,2013-05-12 07:57:00,
2013-05-12 03:02:00,35.1,8.2,0.00,NNW,338,3.6,4.0,32,0.00,,,0.00,VWS V13.01,2013-05-12 08:02:00,
2013-05-12 03:07:00,35.1,8.2,0.00,NW,318,5.4,5.4,32,0.00,,,0.00,VWS V13.01,2013-05-12 08:07:00,
2013-05-12 03:12:00,35.1,8.2,0.00,NW,325,2.7,3.6,32,0.00,,,0.00,VWS V13.01,2013-05-12 08:12:00,
2013-05-12 03:17:00,34.9,8.0,0.00,NW,316,4.0,5.4,32,0.00,,,0.00,VWS V13.01,2013-05-12 08:17:00,
2013-05-12 03:22:00,34.7,7.9,0.00,NW,321,2.7,4.9,32,0.00,,,0.00,VWS V13.01,2013-05-12 08:22:00,
2013-05-12 03:27:00,34.7,7.9,0.00,WNW,301,2.7,4.0,32,0.00,,,0.00,VWS V13.01,2013-05-12 08:27:00,
2013-05-12 03:32:00,34.5,7.7,0.00,NW,306,2.7,5.4,32,0.00,,,0.00,VWS V13.01,2013-05-12 08:32:00,
2013-05-12 03:37:00,34.5,7.7,0.00,WNW,302,4.9,4.9,32,0.00,,,0.00,VWS V13.01,2013-05-12 08:37:00,
2013-05-12 03:42:00,34.3,7.6,0.00,NNW,333,3.6,3.6,32,0.00,,,0.00,VWS V13.01,2013-05-12 08:42:00,
2013-05-12 03:47:00,34.2,7.4,0.00,NW,316,4.0,4.0,32,0.00,,,0.00,VWS V13.01,2013-05-12 08:47:00,
2013-05-12 03:52:00,34.2,7.4,0.00,NW,305,2.7,3.6,32,0.00,,,0.00,VWS V13.01,2013-05-12 08:52:00,
2013-05-12 03:57:00,34.0,7.2,0.00,NW,323,2.7,4.0,32,0.00,,,0.00,VWS V13.01,2013-05-12 08:57:00,
2013-05-12 04:02:00,34.0,7.2,0.00,NNW,333,5.4,5.4,32,0.00,,,0.00,VWS V13.01,2013-05-12 09:02:00,
2013-05-12 04:07:00,34.0,7.2,0.00,WNW,297,4.0,4.0,32,0.00,,,0.00,VWS V13.01,2013-05-12 09:07:00,
2013-05-12 04:12:00,34.0,7.2,0.00,NW,326,0.0,2.7,32,0.00,,,0.00,VWS V13.01,2013-05-12 09:12:00,
2013-05-12 04:17:00,34.0,7.2,0.00,NNW,330,3.6,3.6,32,0.00,,,0.00,VWS V13.01,2013-05-12 09:17:00,
2013-05-12 04:22:00,33.8,7.1,0.00,NW,304,2.7,3.1,32,0.00,,,0.00,VWS V13.01,2013-05-12 09:22:00,
2013-05-12 04:27:00,33.6,7.6,0.00,NW,313,3.1,4.0,33,0.00,,,0.00,VWS V13.01,2013-05-12 09:27:00,
2013-05-12 04:32:00,33.4,7.4,0.00,NNW,329,2.7,4.0,33,0.00,,,0.00,VWS V13.01,2013-05-12 09:32:00,
2013-05-12 04:37:00,33.3,7.3,0.00,West,280,3.6,4.0,33,0.00,,,0.00,VWS V13.01,2013-05-12 09:37:00,
2013-05-12 04:42:00,33.1,7.1,0.00,NW,307,3.1,3.1,33,0.00,,,0.00,VWS V13.01,2013-05-12 09:42:00,
2013-05-12 04:47:00,33.1,7.1,0.00,WNW,299,2.2,2.2,33,0.00,,,0.00,VWS V13.01,2013-05-12 09:47:00,
2013-05-12 04:52:00,32.7,6.8,0.00,NW,304,2.7,4.0,33,0.00,,,0.00,VWS V13.01,2013-05-12 09:52:00,
2013-05-12 04:57:00,32.7,6.8,0.00,NNW,328,2.7,2.7,33,0.00,,,0.00,VWS V13.01,2013-05-12 09:57:00,
2013-05-12 05:02:00,32.5,7.3,0.00,NW,312,0.0,0.0,34,0.00,,,0.00,VWS V13.01,2013-05-12 10:02:00,
2013-05-12 05:07:00,32.5,7.3,0.00,NW,306,4.0,4.0,34,0.00,,,0.00,VWS V13.01,2013-05-12 10:07:00,
2013-05-12 05:12:00,32.4,7.1,0.00,NW,316,3.1,3.1,34,0.00,,,0.00,VWS V13.01,2013-05-12 10:12:00,
2013-05-12 05:17:00,32.5,7.3,0.00,NW,320,2.2,3.1,34,0.00,,,0.00,VWS V13.01,2013-05-12 10:17:00,
2013-05-12 05:22:00,32.4,7.1,0.00,NW,321,3.1,3.6,34,0.00,,,0.00,VWS V13.01,2013-05-12 10:22:00,
2013-05-12 05:27:00,32.2,7.0,0.00,NW,321,3.1,3.1,34,0.00,,,0.00,VWS V13.01,2013-05-12 10:27:00,
2013-05-12 05:32:00,32.2,7.0,0.00,NW,317,0.0,3.1,34,0.00,,,0.00,VWS V13.01,2013-05-12 10:32:00,
2013-05-12 05:37:00,32.2,7.0,0.00,NNW,330,3.1,3.1,34,0.00,,,0.00,VWS V13.01,2013-05-12 10:37:00,
2013-05-12 05:42:00,32.2,7.0,0.00,NW,311,3.1,3.1,34,0.00,,,0.00,VWS V13.01,2013-05-12 10:42:00,
2013-05-12 05:47:00,32.0,6.8,0.00,NW,311,5.4,5.4,34,0.00,,,0.00,VWS V13.01,2013-05-12 10:47:00,
2013-05-12 05:52:00,32.0,6.8,0.00,NW,306,2.7,2.7,34,0.00,,,0.00,VWS V13.01,2013-05-12 10:52:00,
2013-05-12 05:57:00,32.0,6.8,0.00,NW,304,3.6,3.6,34,0.00,,,0.00,VWS V13.01,2013-05-12 10:57:00,
2013-05-12 06:02:00,32.0,6.8,0.00,NW,316,2.7,2.7,34,0.00,,,0.00,VWS V13.01,2013-05-12 11:02:00,
2013-05-12 06:07:00,32.0,6.8,0.00,NW,307,0.0,0.0,34,0.00,,,0.00,VWS V13.01,2013-05-12 11:07:00,
2013-05-12 06:12:00,32.0,7.5,0.00,NW,306,3.1,3.1,35,0.00,,,0.00,VWS V13.01,2013-05-12 11:12:00,
2013-05-12 06:17:00,32.2,7.6,0.00,NW,309,0.0,2.2,35,0.00,,,0.00,VWS V13.01,2013-05-12 11:17:00,
2013-05-12 06:22:00,32.2,7.6,0.00,NW,308,2.2,2.2,35,0.00,,,0.00,VWS V13.01,2013-05-12 11:22:00,
2013-05-12 06:27:00,32.4,7.8,0.00,NW,319,0.0,0.0,35,0.00,,,0.00,VWS V13.01,2013-05-12 11:27:00,
2013-05-12 06:32:00,32.5,8.6,0.00,NNW,334,2.7,2.7,36,0.00,,,0.00,VWS V13.01,2013-05-12 11:32:00,
2013-05-12 06:37:00,32.7,8.1,0.00,NW,318,2.7,2.7,35,0.00,,,0.00,VWS V13.01,2013-05-12 11:37:00,
2013-05-12 06:42:00,33.1,8.4,0.00,NNW,339,5.4,5.4,35,0.00,,,0.00,VWS V13.01,2013-05-12 11:42:00,
2013-05-12 06:47:00,33.1,8.4,0.00,WNW,295,3.6,4.0,35,0.00,,,0.00,VWS V13.01,2013-05-12 11:47:00,
2013-05-12 06:52:00,33.3,8.6,0.00,NNW,334,5.8,5.8,35,0.00,,,0.00,VWS V13.01,2013-05-12 11:52:00,
2013-05-12 06:57:00,33.6,8.9,0.00,NW,315,2.7,2.7,35,0.00,,,0.00,VWS V13.01,2013-05-12 11:57:00,
2013-05-12 07:02:00,33.8,8.4,0.00,WNW,292,3.1,4.9,34,0.00,,,0.00,VWS V13.01,2013-05-12 12:02:00,
2013-05-12 07:07:00,34.2,8.1,0.00,NNW,337,3.6,3.6,33,0.00,,,0.00,VWS V13.01,2013-05-12 12:07:00,
2013-05-12 07:12:00,34.5,8.4,0.00,NW,319,2.2,3.6,33,0.00,,,0.00,VWS V13.01,2013-05-12 12:12:00,
2013-05-12 07:17:00,34.9,8.7,0.00,NNW,334,3.6,3.6,33,0.00,,,0.00,VWS V13.01,2013-05-12 12:17:00,
2013-05-12 07:22:00,35.2,9.0,0.00,NW,315,3.6,5.4,33,0.00,,,0.00,VWS V13.01,2013-05-12 12:22:00,
2013-05-12 07:27:00,35.4,8.5,0.00,NNW,348,3.6,3.6,32,0.00,,,0.00,VWS V13.01,2013-05-12 12:27:00,
2013-05-12 07:32:00,35.4,8.5,0.00,NW,314,4.0,5.4,32,0.00,,,0.00,VWS V13.01,2013-05-12 12:32:00,
2013-05-12 07:37:00,35.6,8.7,0.00,NNW,337,5.8,5.8,32,0.00,,,0.00,VWS V13.01,2013-05-12 12:37:00,
2013-05-12 07:42:00,35.6,8.0,0.00,NW,306,3.6,5.8,31,0.00,,,0.00,VWS V13.01,2013-05-12 12:42:00,
2013-05-12 07:47:00,35.8,8.1,0.00,NW,310,4.9,8.1,31,0.00,,,0.00,VWS V13.01,2013-05-12 12:47:00,
2013-05-12 07:52:00,36.1,8.4,0.00,NNW,344,3.6,5.4,31,0.00,,,0.00,VWS V13.01,2013-05-12 12:52:00,
2013-05-12 07:57:00,36.3,8.6,0.00,NW,311,5.4,6.3,31,0.00,,,0.00,VWS V13.01,2013-05-12 12:57:00,
2013-05-12 08:02:00,36.3,8.6,0.00,NNW,336,4.0,5.4,31,0.00,,,0.00,VWS V13.01,2013-05-12 13:02:00,
2013-05-12 08:07:00,36.3,8.6,0.00,NNW,337,5.4,6.3,31,0.00,,,0.00,VWS V13.01,2013-05-12 13:07:00,
2013-05-12 08:12:00,36.3,7.9,0.00,NNW,338,3.6,4.9,30,0.00,,,0.00,VWS V13.01,2013-05-12 13:12:00,
2013-05-12 08:17:00,36.5,8.8,0.00,NNW,329,4.9,5.8,31,0.00,,,0.00,VWS V13.01,2013-05-12 13:17:00,
2013-05-12 08:22:00,36.9,9.1,0.00,NW,326,6.3,7.2,31,0.00,,,0.00,VWS V13.01,2013-05-12 13:22:00,
2013-05-12 08:27:00,37.0,8.5,0.00,NNW,329,5.4,6.3,30,0.00,,,0.00,VWS V13.01,2013-05-12 13:27:00,
2013-05-12 08:32:00,37.4,8.8,0.00,NNW,343,7.6,11.0,30,0.00,,,0.00,VWS V13.01,2013-05-12 13:32:00,
2013-05-12 08:37:00,37.4,8.8,0.00,North,357,6.3,6.3,30,0.00,,,0.00,VWS V13.01,2013-05-12 13:37:00,
2013-05-12 08:42:00,37.6,9.0,0.00,WNW,301,4.9,4.9,30,0.00,,,0.00,VWS V13.01,2013-05-12 13:42:00,
2013-05-12 08:47:00,37.9,9.3,0.00,WNW,297,7.6,7.6,30,0.00,,,0.00,VWS V13.01,2013-05-12 13:47:00,
2013-05-12 08:52:00,37.9,8.5,0.00,WNW,292,4.0,8.3,29,0.00,,,0.00,VWS V13.01,2013-05-12 13:52:00,
2013-05-12 08:57:00,38.7,9.9,0.00,NNW,334,3.6,3.6,30,0.00,,,0.00,VWS V13.01,2013-05-12 13:57:00,
2013-05-12 09:02:00,38.7,9.2,0.00,West,270,2.7,4.0,29,0.00,,,0.00,VWS V13.01,2013-05-12 14:02:00,
2013-05-12 09:07:00,38.8,9.3,0.00,NW,323,4.0,5.8,29,0.00,,,0.00,VWS V13.01,2013-05-12 14:07:00,
2013-05-12 09:12:00,38.8,9.3,0.00,NW,309,3.1,5.4,29,0.00,,,0.00,VWS V13.01,2013-05-12 14:12:00,
2013-05-12 09:17:00,38.7,9.2,0.00,NNW,345,10.1,10.5,29,0.00,,,0.00,VWS V13.01,2013-05-12 14:17:00,
2013-05-12 09:22:00,38.5,9.0,0.00,NW,318,6.3,9.6,29,0.00,,,0.00,VWS V13.01,2013-05-12 14:22:00,
2013-05-12 09:27:00,38.7,9.2,0.00,NW,326,6.3,6.3,29,0.00,,,0.00,VWS V13.01,2013-05-12 14:27:00,
2013-05-12 09:32:00,39.0,9.5,0.00,NW,326,5.4,5.8,29,0.00,,,0.00,VWS V13.01,2013-05-12 14:32:00,
2013-05-12 09:37:00,39.7,10.1,0.00,WNW,294,2.2,8.3,29,0.00,,,0.00,VWS V13.01,2013-05-12 14:37:00,
2013-05-12 09:42:00,40.1,10.4,0.00,WNW,299,5.8,8.7,29,0.00,,,0.00,VWS V13.01,2013-05-12 14:42:00,
2013-05-12 09:47:00,39.9,10.2,0.00,North,353,6.3,8.1,29,0.00,,,0.00,VWS V13.01,2013-05-12 14:47:00,
2013-05-12 09:52:00,40.1,10.4,0.00,NW,314,7.6,7.6,29,0.00,,,0.00,VWS V13.01,2013-05-12 14:52:00,
2013-05-12 09:57:00,40.3,9.8,0.00,NNE,25,7.6,8.1,28,0.00,,,0.00,VWS V13.01,2013-05-12 14:57:00,
2013-05-12 10:02:00,40.5,9.9,0.00,NW,321,3.6,4.0,28,0.00,,,0.00,VWS V13.01,2013-05-12 15:02:00,
2013-05-12 10:07:00,40.6,10.1,0.00,North,357,5.4,5.8,28,0.00,,,0.00,VWS V13.01,2013-05-12 15:07:00,
2013-05-12 10:12:00,41.0,10.4,0.00,North,357,7.6,8.7,28,0.00,,,0.00,VWS V13.01,2013-05-12 15:12:00,
2013-05-12 10:17:00,41.0,10.4,0.00,West,274,5.4,5.8,28,0.00,,,0.00,VWS V13.01,2013-05-12 15:17:00,
2013-05-12 10:23:00,41.4,10.7,0.00,North,1,4.9,5.8,28,0.00,,,0.00,VWS V13.01,2013-05-12 15:23:00,
2013-05-12 10:28:00,42.4,11.7,0.00,North,0,3.1,6.3,28,0.00,,,0.00,VWS V13.01,2013-05-12 15:28:00,
2013-05-12 10:33:00,42.3,11.5,0.00,NW,309,6.3,8.1,28,0.00,,,0.00,VWS V13.01,2013-05-12 15:33:00,
2013-05-12 10:38:00,42.1,9.7,0.00,North,349,5.8,8.1,26,0.00,,,0.00,VWS V13.01,2013-05-12 15:38:00,
2013-05-12 10:43:00,41.9,11.2,0.00,NNW,340,7.6,7.6,28,0.00,,,0.00,VWS V13.01,2013-05-12 15:43:00,
2013-05-12 10:48:00,41.7,9.4,0.00,North,357,8.1,10.1,26,0.00,,,0.00,VWS V13.01,2013-05-12 15:48:00,
2013-05-12 10:53:00,42.4,10.0,0.00,West,268,0.0,4.0,26,0.00,,,0.00,VWS V13.01,2013-05-12 15:53:00,
2013-05-12 10:58:00,43.7,12.8,0.00,West,269,3.6,4.0,28,0.00,,,0.00,VWS V13.01,2013-05-12 15:58:00,
2013-05-12 11:03:00,44.1,10.5,0.00,North,0,5.8,5.8,25,0.00,,,0.00,VWS V13.01,2013-05-12 16:03:00,
2013-05-12 11:08:00,44.1,10.5,0.00,NNW,334,7.6,8.1,25,0.00,,,0.00,VWS V13.01,2013-05-12 16:08:00,
2013-05-12 11:13:00,43.9,10.4,0.00,NW,319,8.1,8.1,25,0.00,,,0.00,VWS V13.01,2013-05-12 16:13:00,
2013-05-12 11:18:00,43.5,10.0,0.00,West,264,3.1,3.6,25,0.00,,,0.00,VWS V13.01,2013-05-12 16:18:00,
2013-05-12 11:23:00,43.9,10.4,0.00,WNW,283,4.9,4.9,25,0.00,,,0.00,VWS V13.01,2013-05-12 16:23:00,
2013-05-12 11:28:00,44.1,10.5,0.00,NNW,335,8.1,8.1,25,0.00,,,0.00,VWS V13.01,2013-05-12 16:28:00,
2013-05-12 11:33:00,44.8,8.3,0.00,NW,322,10.1,10.1,22,0.00,,,0.00,VWS V13.01,2013-05-12 16:33:00,
2013-05-12 11:38:00,44.8,11.1,0.00,North,349,11.4,11.4,25,0.00,,,0.00,VWS V13.01,2013-05-12 16:38:00,
2013-05-12 11:43:00,44.4,8.9,0.00,West,278,5.8,9.2,23,0.00,,,0.00,VWS V13.01,2013-05-12 16:43:00,
2013-05-12 11:48:00,44.6,8.1,0.00,North,0,8.1,8.7,22,0.00,,,0.00,VWS V13.01,2013-05-12 16:48:00,
2013-05-12 11:53:00,44.8,8.3,0.00,NNW,333,4.9,5.4,22,0.00,,,0.00,VWS V13.01,2013-05-12 16:53:00,
2013-05-12 11:58:00,45.3,8.7,0.00,WNW,283,0.0,4.9,22,0.00,,,0.00,VWS V13.01,2013-05-12 16:58:00,
2013-05-12 12:03:00,46.0,9.3,0.00,NNW,332,3.1,3.1,22,0.00,,,0.00,VWS V13.01,2013-05-12 17:03:00,
2013-05-12 12:08:00,46.4,9.6,0.00,NNE,29,8.3,8.3,22,0.00,,,0.00,VWS V13.01,2013-05-12 17:08:00,
2013-05-12 12:13:00,45.9,9.2,0.00,NE,49,3.6,3.6,22,0.00,,,0.00,VWS V13.01,2013-05-12 17:13:00,
2013-05-12 12:18:00,46.0,9.3,0.00,NW,319,9.6,9.6,22,0.00,,,0.00,VWS V13.01,2013-05-12 17:18:00,
2013-05-12 12:23:00,46.4,9.6,0.00,NNW,335,4.5,6.7,22,0.00,,,0.00,VWS V13.01,2013-05-12 17:23:00,
2013-05-12 12:28:00,46.4,9.6,0.00,NW,311,3.1,4.9,22,0.00,,,0.00,VWS V13.01,2013-05-12 17:28:00,
2013-05-12 12:33:00,46.6,9.8,0.00,NW,314,5.8,7.2,22,0.00,,,0.00,VWS V13.01,2013-05-12 17:33:00,
2013-05-12 12:38:00,46.8,9.9,0.00,NNW,340,4.9,8.1,22,0.00,,,0.00,VWS V13.01,2013-05-12 17:38:00,
2013-05-12 12:43:00,46.9,6.8,0.00,North,350,8.1,8.1,19,0.00,,,0.00,VWS V13.01,2013-05-12 17:43:00,
2013-05-12 12:48:00,46.4,6.4,0.00,NW,319,7.2,7.2,19,0.00,,,0.00,VWS V13.01,2013-05-12 17:48:00,
2013-05-12 12:53:00,46.8,6.7,0.00,NW,308,8.1,8.3,19,0.00,,,0.00,VWS V13.01,2013-05-12 17:53:00,
2013-05-12 12:58:00,47.1,7.0,0.00,North,2,4.0,8.7,19,0.00,,,0.00,VWS V13.01,2013-05-12 17:58:00,
2013-05-12 13:03:00,47.7,7.4,0.00,NW,326,7.2,9.6,19,0.00,,,0.00,VWS V13.01,2013-05-12 18:03:00,
2013-05-12 13:08:00,47.7,7.4,0.00,WNW,300,3.1,4.9,19,0.00,,,0.00,VWS V13.01,2013-05-12 18:08:00,
2013-05-12 13:13:00,48.2,7.9,0.00,West,271,4.0,10.1,19,0.00,,,0.00,VWS V13.01,2013-05-12 18:13:00,
2013-05-12 13:18:00,48.4,8.0,0.00,North,353,8.1,8.1,19,0.00,,,0.00,VWS V13.01,2013-05-12 18:18:00,
2013-05-12 13:23:00,48.6,8.2,0.00,WNW,299,0.0,5.8,19,0.00,,,0.00,VWS V13.01,2013-05-12 18:23:00,
2013-05-12 13:28:00,49.3,8.8,0.00,NNW,327,3.1,3.6,19,0.00,,,0.00,VWS V13.01,2013-05-12 18:28:00,
2013-05-12 13:33:00,49.5,8.9,0.00,NNW,346,8.3,11.4,19,0.00,,,0.00,VWS V13.01,2013-05-12 18:33:00,
2013-05-12 13:38:00,49.6,9.1,0.00,NNW,331,8.7,8.7,19,0.00,,,0.00,VWS V13.01,2013-05-12 18:38:00,
2013-05-12 13:43:00,49.3,8.8,0.00,NNW,339,5.8,5.8,19,0.00,,,0.00,VWS V13.01,2013-05-12 18:43:00,
2013-05-12 13:48:00,48.6,8.2,0.00,NNW,342,3.6,3.6,19,0.00,,,0.00,VWS V13.01,2013-05-12 18:48:00,
2013-05-12 13:53:00,49.3,8.8,0.00,NNW,343,5.4,5.4,19,0.00,,,0.00,VWS V13.01,2013-05-12 18:53:00,
2013-05-12 13:58:00,49.5,8.9,0.00,West,263,5.8,7.2,19,0.00,,,0.00,VWS V13.01,2013-05-12 18:58:00,
2013-05-12 14:03:00,49.5,8.9,0.00,WNW,301,4.0,10.1,19,0.00,,,0.00,VWS V13.01,2013-05-12 19:03:00,
2013-05-12 14:08:00,49.5,8.9,0.00,West,275,3.6,3.6,19,0.00,,,0.00,VWS V13.01,2013-05-12 19:08:00,
2013-05-12 14:13:00,49.6,9.1,0.00,NNW,342,3.6,8.3,19,0.00,,,0.00,VWS V13.01,2013-05-12 19:13:00,
2013-05-12 14:18:00,49.8,9.2,0.00,NNW,343,8.1,8.1,19,0.00,,,0.00,VWS V13.01,2013-05-12 19:18:00,
2013-05-12 14:23:00,49.6,9.1,0.00,NW,308,6.3,8.7,19,0.00,,,0.00,VWS V13.01,2013-05-12 19:23:00,
2013-05-12 14:28:00,49.3,8.8,0.00,NW,312,3.6,3.6,19,0.00,,,0.00,VWS V13.01,2013-05-12 19:28:00,
2013-05-12 14:33:00,49.3,8.8,0.00,NNW,330,5.8,5.8,19,0.00,,,0.00,VWS V13.01,2013-05-12 19:33:00,
2013-05-12 14:38:00,49.6,9.1,0.00,NNW,327,5.4,5.4,19,0.00,,,0.00,VWS V13.01,2013-05-12 19:38:00,
2013-05-12 14:43:00,50.0,9.4,0.00,WNW,299,3.6,3.6,19,0.00,,,0.00,VWS V13.01,2013-05-12 19:43:00,
2013-05-12 14:48:00,50.2,9.5,0.00,NNW,337,15.4,15.4,19,0.00,,,0.00,VWS V13.01,2013-05-12 19:48:00,
2013-05-12 14:53:00,50.2,9.5,0.00,WNW,287,5.8,6.3,19,0.00,,,0.00,VWS V13.01,2013-05-12 19:53:00,
2013-05-12 14:58:00,50.2,9.5,0.00,WNW,297,4.0,5.8,19,0.00,,,0.00,VWS V13.01,2013-05-12 19:58:00,
2013-05-12 15:03:00,50.4,9.7,0.00,NW,323,2.2,2.7,19,0.00,,,0.00,VWS V13.01,2013-05-12 20:03:00,
2013-05-12 15:08:00,50.9,10.1,0.00,NNW,332,4.0,4.0,19,0.00,,,0.00,VWS V13.01,2013-05-12 20:08:00,
2013-05-12 15:13:00,51.1,10.3,0.00,West,271,0.0,3.1,19,0.00,,,0.00,VWS V13.01,2013-05-12 20:13:00,
2013-05-12 15:18:00,50.7,10.0,0.00,NNW,331,8.7,8.7,19,0.00,,,0.00,VWS V13.01,2013-05-12 20:18:00,
2013-05-12 15:23:00,50.4,9.7,0.00,WNW,301,0.0,2.2,19,0.00,,,0.00,VWS V13.01,2013-05-12 20:23:00,
2013-05-12 15:28:00,50.7,10.0,0.00,NNW,334,3.1,3.1,19,0.00,,,0.00,VWS V13.01,2013-05-12 20:28:00,
2013-05-12 15:33:00,51.3,10.4,0.00,NNW,342,0.0,2.7,19,0.00,,,0.00,VWS V13.01,2013-05-12 20:33:00,
2013-05-12 15:38:00,51.3,10.4,0.00,NW,310,5.4,5.4,19,0.00,,,0.00,VWS V13.01,2013-05-12 20:38:00,
2013-05-12 15:43:00,50.7,10.0,0.00,NNW,339,8.7,10.5,19,0.00,,,0.00,VWS V13.01,2013-05-12 20:43:00,
2013-05-12 15:48:00,50.5,9.8,0.00,NW,307,5.4,8.3,19,0.00,,,0.00,VWS V13.01,2013-05-12 20:48:00,
2013-05-12 15:53:00,50.4,9.7,0.00,NNW,342,2.7,4.0,19,0.00,,,0.00,VWS V13.01,2013-05-12 20:53:00,
2013-05-12 15:58:00,50.7,10.0,0.00,NW,306,4.0,4.0,19,0.00,,,0.00,VWS V13.01,2013-05-12 20:58:00,
2013-05-12 16:03:00,51.3,10.4,0.00,NNW,335,4.9,6.3,19,0.00,,,0.00,VWS V13.01,2013-05-12 21:03:00,
2013-05-12 16:08:00,50.7,10.0,0.00,North,0,8.1,8.1,19,0.00,,,0.00,VWS V13.01,2013-05-12 21:08:00,
2013-05-12 16:13:00,51.1,10.3,0.00,NW,322,4.9,4.9,19,0.00,,,0.00,VWS V13.01,2013-05-12 21:13:00,
2013-05-12 16:18:00,51.6,10.7,0.00,NW,308,3.1,6.3,19,0.00,,,0.00,VWS V13.01,2013-05-12 21:18:00,
2013-05-12 16:23:00,52.0,9.8,0.00,NW,326,8.3,8.3,18,0.00,,,0.00,VWS V13.01,2013-05-12 21:23:00,
2013-05-12 16:28:00,51.6,10.7,0.00,NNW,345,2.7,3.6,19,0.00,,,0.00,VWS V13.01,2013-05-12 21:28:00,
2013-05-12 16:33:00,51.6,10.7,0.00,NW,320,4.0,6.3,19,0.00,,,0.00,VWS V13.01,2013-05-12 21:33:00,
2013-05-12 16:38:00,51.8,9.7,0.00,NW,310,8.7,8.7,18,0.00,,,0.00,VWS V13.01,2013-05-12 21:38:00,
2013-05-12 16:43:00,52.0,9.8,0.00,WNW,295,4.9,6.3,18,0.00,,,0.00,VWS V13.01,2013-05-12 21:43:00,
2013-05-12 16:48:00,51.8,9.7,0.00,North,7,2.7,8.1,18,0.00,,,0.00,VWS V13.01,2013-05-12 21:48:00,
2013-05-12 16:53:00,51.8,9.7,0.00,North,353,3.1,8.1,18,0.00,,,0.00,VWS V13.01,2013-05-12 21:53:00,
2013-05-12 16:58:00,52.0,9.8,0.00,WNW,301,8.3,8.3,18,0.00,,,0.00,VWS V13.01,2013-05-12 21:58:00,
2013-05-12 17:03:00,51.8,9.7,0.00,North,6,7.6,7.6,18,0.00,,,0.00,VWS V13.01,2013-05-12 22:03:00,
2013-05-12 17:08:00,52.0,9.8,0.00,NNW,328,4.0,4.0,18,0.00,,,0.00,VWS V13.01,2013-05-12 22:08:00,
2013-05-12 17:13:00,52.2,10.0,0.00,NW,317,8.1,10.5,18,0.00,,,0.00,VWS V13.01,2013-05-12 22:13:00,
2013-05-12 17:18:00,52.2,10.0,0.00,NW,322,3.6,5.8,18,0.00,,,0.00,VWS V13.01,2013-05-12 22:18:00,
2013-05-12 17:23:00,52.0,9.8,0.00,NW,316,5.4,8.1,18,0.00,,,0.00,VWS V13.01,2013-05-12 22:23:00,
2013-05-12 17:28:00,51.8,9.7,0.00,NW,316,4.0,8.3,18,0.00,,,0.00,VWS V13.01,2013-05-12 22:28:00,
2013-05-12 17:33:00,51.6,10.7,0.00,NNW,342,6.3,6.3,19,0.00,,,0.00,VWS V13.01,2013-05-12 22:33:00,
2013-05-12 17:38:00,51.6,10.7,0.00,NW,312,3.6,4.9,19,0.00,,,0.00,VWS V13.01,2013-05-12 22:38:00,
2013-05-12 17:43:00,52.0,9.8,0.00,NW,319,2.7,4.9,18,0.00,,,0.00,VWS V13.01,2013-05-12 22:43:00,
2013-05-12 17:48:00,52.0,9.8,0.00,NW,310,8.1,9.6,18,0.00,,,0.00,VWS V13.01,2013-05-12 22:48:00,
2013-05-12 17:53:00,52.0,9.8,0.00,North,350,2.2,4.0,18,0.00,,,0.00,VWS V13.01,2013-05-12 22:53:00,
2013-05-12 17:58:00,52.2,10.0,0.00,WNW,286,4.0,7.6,18,0.00,,,0.00,VWS V13.01,2013-05-12 22:58:00,
2013-05-12 18:03:00,52.2,10.0,0.00,NNW,333,3.6,5.8,18,0.00,,,0.00,VWS V13.01,2013-05-12 23:03:00,
2013-05-12 18:08:00,52.2,10.0,0.00,NW,316,8.3,8.3,18,0.00,,,0.00,VWS V13.01,2013-05-12 23:08:00,
2013-05-12 18:13:00,52.2,10.0,0.00,North,357,7.6,8.7,18,0.00,,,0.00,VWS V13.01,2013-05-12 23:13:00,
2013-05-12 18:18:00,52.2,10.0,0.00,NNW,338,5.8,7.6,18,0.00,,,0.00,VWS V13.01,2013-05-12 23:18:00,
2013-05-12 18:23:00,52.2,10.0,0.00,NNW,327,4.0,5.4,18,0.00,,,0.00,VWS V13.01,2013-05-12 23:23:00,
2013-05-12 18:28:00,52.0,9.8,0.00,WNW,302,3.1,8.7,18,0.00,,,0.00,VWS V13.01,2013-05-12 23:28:00,
2013-05-12 18:34:00,51.8,9.7,0.00,North,353,5.8,8.7,18,0.00,,,0.00,VWS V13.01,2013-05-12 23:34:00,
2013-05-12 18:38:00,51.8,9.7,0.00,NNW,327,4.0,5.8,18,0.00,,,0.00,VWS V13.01,2013-05-12 23:38:00,
2013-05-12 18:44:00,52.0,9.8,0.00,NW,313,3.6,3.6,18,0.00,,,0.00,VWS V13.01,2013-05-12 23:44:00,
2013-05-12 18:48:00,51.8,9.7,0.00,NW,316,3.6,4.9,18,0.00,,,0.00,VWS V13.01,2013-05-12 23:48:00,
2013-05-12 18:54:00,51.8,9.7,0.00,NW,317,2.7,5.8,18,0.00,,,0.00,VWS V13.01,2013-05-12 23:54:00,
2013-05-12 18:59:00,52.0,9.8,0.00,NNW,338,5.4,6.7,18,0.00,,,0.00,VWS V13.01,2013-05-12 23:59:00,
2013-05-12 19:04:00,51.8,9.7,0.00,NW,309,2.2,3.6,18,0.00,,,0.00,VWS V13.01,2013-05-13 00:04:00,
2013-05-12 19:09:00,51.6,10.7,0.00,NW,310,2.2,2.7,19,0.00,,,0.00,VWS V13.01,2013-05-13 00:09:00,
2013-05-12 19:14:00,51.6,10.7,0.00,NNW,332,8.1,8.1,19,0.00,,,0.00,VWS V13.01,2013-05-13 00:14:00,
2013-05-12 19:19:00,51.6,10.7,0.00,NNW,331,0.0,4.9,19,0.00,,,0.00,VWS V13.01,2013-05-13 00:19:00,
2013-05-12 19:24:00,51.4,10.6,0.00,NNW,338,8.3,8.3,19,0.00,,,0.00,VWS V13.01,2013-05-13 00:24:00,
2013-05-12 19:29:00,51.3,10.4,0.00,NW,326,2.7,7.6,19,0.00,,,0.00,VWS V13.01,2013-05-13 00:29:00,
2013-05-12 19:34:00,51.3,10.4,0.00,NW,308,2.2,3.6,19,0.00,,,0.00,VWS V13.01,2013-05-13 00:34:00,
2013-05-12 19:39:00,51.1,10.3,0.00,NW,306,0.0,6.3,19,0.00,,,0.00,VWS V13.01,2013-05-13 00:39:00,
2013-05-12 19:44:00,50.9,10.1,0.00,NNW,331,5.8,5.8,19,0.00,,,0.00,VWS V13.01,2013-05-13 00:44:00,
2013-05-12 19:49:00,50.7,10.0,0.00,WNW,301,0.0,3.1,19,0.00,,,0.00,VWS V13.01,2013-05-13 00:49:00,
2013-05-12 19:54:00,50.5,9.8,0.00,NW,325,3.1,4.0,19,0.00,,,0.00,VWS V13.01,2013-05-13 00:54:00,
2013-05-12 19:59:00,50.4,9.7,0.00,NW,305,0.0,3.6,19,0.00,,,0.00,VWS V13.01,2013-05-13 00:59:00,
2013-05-12 20:04:00,50.2,9.5,0.00,NNW,327,2.2,4.0,19,0.00,,,0.00,VWS V13.01,2013-05-13 01:04:00,
2013-05-12 20:09:00,50.0,9.4,0.00,NW,323,4.0,4.9,19,0.00,,,0.00,VWS V13.01,2013-05-13 01:09:00,
2013-05-12 20:14:00,49.8,9.2,0.00,NNW,338,2.7,2.7,19,0.00,,,0.00,VWS V13.01,2013-05-13 01:14:00,
2013-05-12 20:19:00,49.6,9.1,0.00,NW,310,0.0,3.6,19,0.00,,,0.00,VWS V13.01,2013-05-13 01:19:00,
2013-05-12 20:24:00,49.3,8.8,0.00,NW,306,0.0,0.0,19,0.00,,,0.00,VWS V13.01,2013-05-13 01:24:00,
2013-05-12 20:29:00,48.9,8.5,0.00,NNW,333,0.0,0.0,19,0.00,,,0.00,VWS V13.01,2013-05-13 01:29:00,
2013-05-12 20:34:00,48.6,8.2,0.00,NNW,333,0.0,0.0,19,0.00,,,0.00,VWS V13.01,2013-05-13 01:34:00,
2013-05-12 20:39:00,48.0,7.7,0.00,NNW,333,0.0,0.0,19,0.00,,,0.00,VWS V13.01,2013-05-13 01:39:00,
2013-05-12 20:44:00,47.5,7.3,0.00,NNW,333,0.0,0.0,19,0.00,,,0.00,VWS V13.01,2013-05-13 01:44:00,
2013-05-12 20:49:00,46.9,6.8,0.00,NNW,333,0.0,0.0,19,0.00,,,0.00,VWS V13.01,2013-05-13 01:49:00,
2013-05-12 20:54:00,46.2,7.4,0.00,NNW,333,0.0,0.0,20,0.00,,,0.00,VWS V13.01,2013-05-13 01:54:00,
2013-05-12 20:59:00,45.9,7.1,0.00,NNW,333,0.0,0.0,20,0.00,,,0.00,VWS V13.01,2013-05-13 01:59:00,
2013-05-12 21:04:00,45.3,6.6,0.00,NNW,333,0.0,0.0,20,0.00,,,0.00,VWS V13.01,2013-05-13 02:04:00,
2013-05-12 21:09:00,44.8,6.2,0.00,NNW,333,0.0,0.0,20,0.00,,,0.00,VWS V13.01,2013-05-13 02:09:00,
2013-05-12 21:14:00,44.4,5.9,0.00,NNW,333,0.0,0.0,20,0.00,,,0.00,VWS V13.01,2013-05-13 02:14:00,
2013-05-12 21:19:00,43.9,5.4,0.00,NNW,333,0.0,0.0,20,0.00,,,0.00,VWS V13.01,2013-05-13 02:19:00,
2013-05-12 21:24:00,43.5,5.1,0.00,NNW,333,0.0,0.0,20,0.00,,,0.00,VWS V13.01,2013-05-13 02:24:00,
2013-05-12 21:29:00,43.0,4.7,0.00,NNW,333,0.0,0.0,20,0.00,,,0.00,VWS V13.01,2013-05-13 02:29:00,
2013-05-12 21:34:00,42.4,5.3,0.00,NNE,19,2.7,4.0,21,0.00,,,0.00,VWS V13.01,2013-05-13 02:34:00,
2013-05-12 21:39:00,43.0,4.7,0.00,NNW,343,0.0,0.0,20,0.00,,,0.00,VWS V13.01,2013-05-13 02:39:00,
2013-05-12 21:44:00,43.3,5.0,0.00,NNW,343,0.0,0.0,20,0.00,,,0.00,VWS V13.01,2013-05-13 02:44:00,
2013-05-12 21:49:00,43.9,5.4,0.00,NNW,343,0.0,0.0,20,0.00,,,0.00,VWS V13.01,2013-05-13 02:49:00,
2013-05-12 21:54:00,43.5,5.1,0.00,NNW,344,0.0,0.0,20,0.00,,,0.00,VWS V13.01,2013-05-13 02:54:00,
2013-05-12 21:59:00,43.0,4.7,0.00,NNW,343,0.0,0.0,20,0.00,,,0.00,VWS V13.01,2013-05-13 02:59:00,
2013-05-12 22:04:00,42.1,5.0,0.00,NNW,343,0.0,0.0,21,0.00,,,0.00,VWS V13.01,2013-05-13 03:04:00,
2013-05-12 22:09:00,41.2,4.2,0.00,NNW,343,0.0,0.0,21,0.00,,,0.00,VWS V13.01,2013-05-13 03:09:00,
2013-05-12 22:14:00,40.5,3.6,0.00,NNW,343,0.0,0.0,21,0.00,,,0.00,VWS V13.01,2013-05-13 03:14:00,
2013-05-12 22:19:00,39.9,3.2,0.00,NNW,343,0.0,0.0,21,0.00,,,0.00,VWS V13.01,2013-05-13 03:19:00,
2013-05-12 22:24:00,39.4,4.7,0.00,NNW,343,0.0,0.0,23,0.00,,,0.00,VWS V13.01,2013-05-13 03:24:00,
2013-05-12 22:29:00,38.8,5.2,0.00,NNW,343,0.0,0.0,24,0.00,,,0.00,VWS V13.01,2013-05-13 03:29:00,
2013-05-12 22:34:00,38.5,4.8,0.00,NNW,343,0.0,0.0,24,0.00,,,0.00,VWS V13.01,2013-05-13 03:34:00,
2013-05-12 22:39:00,38.1,6.3,0.00,NNW,343,0.0,0.0,26,0.00,,,0.00,VWS V13.01,2013-05-13 03:39:00,
2013-05-12 22:44:00,37.8,6.0,0.00,NNW,343,0.0,0.0,26,0.00,,,0.00,VWS V13.01,2013-05-13 03:44:00,
2013-05-12 22:49:00,37.4,8.1,0.00,NNW,343,0.0,0.0,29,0.00,,,0.00,VWS V13.01,2013-05-13 03:49:00,
2013-05-12 22:54:00,37.0,7.8,0.00,NNW,343,0.0,0.0,29,0.00,,,0.00,VWS V13.01,2013-05-13 03:54:00,
2013-05-12 22:59:00,36.9,8.3,0.00,NNW,343,0.0,0.0,30,0.00,,,0.00,VWS V13.01,2013-05-13 03:59:00,
2013-05-12 23:01:00,36.7,8.2,0.00,NNW,344,0.0,0.0,30,0.00,,,0.00,VWS V13.01,2013-05-13 04:01:00,
2013-05-12 23:06:00,36.5,8.0,0.00,NNW,343,0.0,0.0,30,0.00,,,0.00,VWS V13.01,2013-05-13 04:06:00,
2013-05-12 23:11:00,36.3,8.6,0.00,NNW,343,0.0,0.0,31,0.00,,,0.00,VWS V13.01,2013-05-13 04:11:00,
2013-05-12 23:16:00,36.1,9.1,0.00,NNW,344,3.1,3.1,32,0.00,,,0.00,VWS V13.01,2013-05-13 04:16:00,
2013-05-12 23:22:00,36.1,9.8,0.00,North,353,0.0,0.0,33,0.00,,,0.00,VWS V13.01,2013-05-13 04:22:00,
2013-05-12 23:27:00,37.2,10.8,0.00,North,0,3.6,3.6,33,0.00,,,0.00,VWS V13.01,2013-05-13 04:27:00,
2013-05-12 23:32:00,38.3,10.3,0.00,NNE,32,0.0,2.2,31,0.00,,,0.00,VWS V13.01,2013-05-13 04:32:00,
2013-05-12 23:37:00,38.8,10.8,0.00,NNE,12,0.0,0.0,31,0.00,,,0.00,VWS V13.01,2013-05-13 04:37:00,
2013-05-12 23:42:00,38.8,10.8,0.00,NE,35,0.0,0.0,31,0.00,,,0.00,VWS V13.01,2013-05-13 04:42:00,
2013-05-12 23:47:00,38.8,10.1,0.00,NNW,335,0.0,0.0,30,0.00,,,0.00,VWS V13.01,2013-05-13 04:47:00,
2013-05-12 23:52:00,38.8,10.1,0.00,NNW,333,0.0,0.0,30,0.00,,,0.00,VWS V13.01,2013-05-13 04:52:00,
2013-05-12 23:57:00,38.8,10.1,0.00,NNE,22,0.0,0.0,30,0.00,,,0.00,VWS V13.01,2013-05-13 04:57:00,